Погода в Курдамире

Погода в Курдамире : погода сейчас, прогноз погоды и архив. Всё, что Вы хотите узнать о погоде в Курдамире!

Поиск расширенной информации на нашем сайте:

Другие новости

Новости СМИ2

Главная страница сайта

Новости сайта

03.07.2017

Напоминаем, что на нашем специализированном сайте Метеоцентр.Азия вы можете получить высокодетализированные автоматические прогнозы погоды по пунктам России, СНГ и мира в авиационном формате (включающие направление и скорость ветра, видимость, явления погоды, количество и форму облачности, нижнюю и верхнюю границу облачности).


Погода в Курдамире - сегодня

Время (UTC), дата Ветер
(°,м/с) 
Видим.   Явления Облачность Т
(°С)
Тd
(°С)
f(%) Тe
(°С)
Pmin
(гПа)
dP
(гПа)
Po
(мм)
O2
(г/м3)
Тmin Tmax R s Состояние
почвы
00 20.05.18 090 (В) 20000 м    ясно 
+16.9 +7.6 54 +18  1015.7  -0.2  761  288           
03 20.05.18 080 (В) 20000 м    6/0 средняя 
[Ac trans]
+18.4 +6.1 44 +19  1015.9  0.2  762  287           
09 20.05.18 120 (ЮВ) 20000 м    4/0 средняя 
[Ac trans]
+30 +7.4 24 +30  1014.5  -1.5  761  275           
12 20.05.18 140 (ЮВ) 20000 м    6/0 верхняя 
[Ci ing]
+32.7 +8.1 22 +33  1012.9  -1.6  759  272           
15 20.05.18 170 (Ю) 20000 м    10/0 средняя 
[Ac As]
+29.9 +4.6 20 +30  1012.5  -0.4  759  275           
21 20.05.18 070 (В) 20000 м    ясно 
+21.4 +10.4 49 +23  1014  -0.5  760  282           
00 21.05.18 150 (ЮВ) 20000 м    ясно 
+17.6 +9.9 61 +20  1013.6  -0.4  760  286           
03 21.05.18 100 (В) 20000 м    ясно 
+17.8 +9.7 59 +20  1014.5  0.9  761  286           
06 21.05.18 130 (ЮВ) 20000 м    9/8 600 м средняя 
[Sc|Ac trans]
+24.3 +13.5 51 +30  1014.9  0.4  761  279  +17.5         
09 21.05.18 060 (СВ) 20000 м    8/4 600 м средняя 
[Sc|Ac trans]
+28 +12.9 39 +33  1014.3  -0.6  760  275           
12 21.05.18 150 (ЮВ) 20000 м    8/0 верхняя 
[Ci ing]
+32.1 +7 21 +32  1012.4  -1.9  759  273           
15 21.05.18 170 (Ю) 20000 м    9/4 600 м средняя, верхняя 
[Sc|Ac trans|Ci ing]
+29.4 +8.6 27 +29  1012  -0.4  759  275           
21 21.05.18 130 (ЮВ) 20000 м    8/5 600 м средняя 
[Sc|Ac trans]
+20.2 +11.3 57 +23  1014.2  -0.3  760  283           
00 22.05.18 110 (В) 20000 м    8/5 600 м средняя 
[Sc|Ac trans]
+19.7 +11.8 60 +24  1015.1  0.9  761  284           
03 22.05.18 110 (В) 20000 м    ясно 
+19.3 +11.9 62 +24  1016.7  1.6  762  285           
06 22.05.18 020 (С) 20000 м    8/0 средняя, верхняя 
[Ac trans|Ci fib]
+26.7 +14 46 +33  1017.8  1.1  763  277  +19.2         
09 22.05.18 150 (ЮВ) 20000 м    4/0 средняя 
[Ac trans]
+31.8 +10.7 27 +34  1017.6  0.2  763  273           
12 22.05.18 100 (В) 20000 м    3/0 средняя 
[Ac trans]
+31.9 +9.1 24 +32  1016.2  -1.4  762  273           
15 22.05.18 200 (Ю) 20000 м    8/0 средняя 
[Ac trans]
+32.2 +8.8 24 +32  1016.2  762  273           
21 22.05.18 180 (Ю) 20000 м    ясно 
+21 +13.5 62 +27  1017.9  0.1  763  283           
00 23.05.18 110 (В) 20000 м    ясно 
+19.8 +14.9 73 +29  1018.7  0.8  764  284           
03 23.05.18 110 (В) 20000 м    ясно 
+18.7 +11.7 64 +23  1019.1  0.4  764  286           
09 23.05.18 тихо ()   20000 м    ясно 
+32.7 +6.8 20 +33  1017.8  -1.5  763  274           
12 23.05.18 180 (Ю) 20000 м    8/0 средняя 
[Ac trans]
+34.7 +1.3 12 +35  1016.3  -1.5  762  272           
15 23.05.18 150 (ЮВ) 20000 м    4/0 средняя 
[Ac lent]
+33 +5 17 +33  1015.6  -0.7  761  273           
Время (UTC), дата Ветер
(°,м/с) 
Видим.   Явления Облачность Т
(°С)
Тd
(°С)
f(%) Тe
(°С)
Pmin
(гПа)
dP
(гПа)
Po
(мм)
O2
(г/м3)
Тmin Tmax R s Состояние
почвы

Для получения пояснительной информации подведите курсор к названию столбца.

ПОГОДА в Курдамире - архив

Всё, что Вы хотите узнать о погоде в Курдамире - удобно и подробно!

Выберите нужную дату (начиная с 1 января 2015* года) и нажмите кнопку "Найти".
Будут отображены архивные сводки погоды по пункту Курдамир, начиная с указанной даты.


Отображать данные в формате CSV (для использования в таблицах Excel)


Внимание! Наш архив погоды предназначен исключительно для личного некоммерческого использования в познавательных целях. Если Вам необходимы официальные справки о состоянии погоды (для производственных, юридических, коммерческих и т.п. целей), обращайтесь в органы Росгидромета.

*Примечание: данная дата относится к архиву по метеостанциям СССР (Россия, СНГ, Балтия).
Архив по метеостанциям Зарубежной Европы и Азии (кроме Китая) хранится 10 дней, по другим регионам земного шара (Китай, Африка, Америка, Австралия, Океания) - 1 день.

Курдамир - район местоположения метеостанции


Название, широта, долгота, высота метеостанции:
Курдамир 40.3°ш. 48.2°д. 4 м над ур. моря [Азербайджан]

Дополнительная информация

В oтличие oт бoльшинства пoгoдных сайтoв мы публикуем пoдрoбную метеoинфoрмацию в детальнoм прoфессиoнальнoм фoрмате.

Характеристики температуры и влажнoсти вoздуха измеряются на высoте 2 м в тени вдали oт зданий и деревьев.
Скoрoсть ветра измеряется на высoте 10 м (на урoвне рoста челoвека скoрoсть ветра ниже в 1.5-2 раза). Если метеoстанция нахoдится в гoрoде или в лесу, тo скoрoсть ветра занижена на 2-4 м/с пo сравнению с oткрытым местoм. Скoрoсть ветра над акватoриями крупных рек и oзёр, а также на вершинах хoлмoв на 2-5 м/с выше, чем в oбычных услoвиях.
Атмoсфернoе давление в разных тoчках местнoсти мoжет значительнo oтличаться oт давления на метеoстанции, в зависимoсти oт услoвий рельефа (при пoдъёме на 10 м давление пoнижается примернo на 1 мм рт.ст.).